Location: Burbank
(38.7788°N, 114.0429°W)
Time: 20:45:38
(UTC+00:00)

Vanguard 2 Rocket - Pass Details

Date: 17 May 2026
Orbit: 553 x 3286 km, 32.9° (Epoch: 6 June)

Event Time Altitude Azimuth Distance (km) Brightness Sun altitude
Rises 21:53:08 0° 276° (W) 6,180 11.6 54.1°
Reaches altitude 10° 21:56:48 10° 273° (W) 5,446 11.6 53.4°
Maximum altitude 22:14:13 62° 199° (SSW) 3,524 11.1 50.2°
Drops below altitude 10° 22:33:16 10° 124° (SE) 5,875 10.8 46.7°
Sets 22:37:26 0° 121° (ESE) 6,667 11.0 45.9°
